STARLINK-34936, 65898

Orbit data source: Space-Track

STARLINK-34936, 65898 is a payload satellite owned by SpaceX/Seattle (US) in LEO that was launched on Tue, 07 Oct 2025 UTC via an FALCON 9 launch vehicle from the Air Force Eastern Test Range (AFETR). Payload-class satellites include a variety of spacecraft equipped with specific instruments for various scientific and technological missions. These include communications satellites like Starlink; space stations such as the ISS; scientific satellites like the Hubble; Earth observation satellites from companies like Planet Labs, Umbra, and HawkEye 360; GPS; miniature CubeSats for education and research; and military/defense satellites.

Loading next visibility...
Identifier
65898, 2025-224S
Orbit
LEO
Country
Flag of USUS
Related business
Manufacturer
SpaceX/Seattle
Mission
Operational Commercial Communications
Bus & Motor
STARLINK V2MO, Unknown motor
Mass
575 kg wet, ~530 kg dry
Launch date (UTC)
2025-10-07 (5 months ago)
Launch vehicle
FALCON 9
Launch site
Air Force Eastern Test Range (AFETR)
Object type
Payload
Rocket body
Debris
Shape & HBR
Box + 2 Pan, 17.7 m
Radar Cross Section
36.964 m²

Expand to show TLE details & history
Last TLE update: 11 hours ago

TLE from 11 hours ago
0 STARLINK-34936
1 65898U 25224S   26062.34181204  .00033629  00000-0  11423-2 0  9996
2 65898  53.1608  40.7405 0001224  86.5193 273.5948 15.30202072 23906
Epoch: 2026-03-03T08:12Z
TLE epoch observation values (Epoch: 2026-03-03T08:12:12.560Z)
Latitude
0.00001°
Longitude
116.56592°
Altitude
476.056 km
Speed
7.629 km/s
True Right ascension
02h 42m 57s
True Declination
0° 00' 00"
Sunlit
Object was in daylight at epoch
Visualization orbit readout
Latitude
Unknown
Longitude
Unknown
Altitude
Unknown
Speed
Unknown
Apparent Right ascension
Unknown
Apparent Declination
Unknown
Sunlit
N/A
Visualization observer readout
Local Sidereal Time
23:12:21
Azimuth
Unknown
Elevation
Unknown
Doppler factor
Unknown
Orbital elements
Apogee altitude
476.304 km
Perigee altitude
474.626 km
Semi-major axis
6,853.602 km
Eccentricity
0.00012
Inclination
53.1608°
RAAN
40.7405°
Arg. of periapsis
86.5193°
True anomaly
273.5808°
Mean anomaly
273.5948°
Eccentric anomaly
273.5878°
Mean motion
3.82529 °/min
Orbital period
94.11 mins
BSTAR
0.0011423
Loading maneuver chart data...
Computing Atmospheric mass density...
Loading historical data...
Loading historical data...
Loading historical data...
Loading historical data...
Loading historical data...
Loading historical data...
Loading historical data...

Documentation

Showing up to 5 results
|